Flag for U.S.A. Weather past 2 weeks in Moreno Valley, California, U.S.A.

Now
73 °F

Passing clouds.


Feels Like: 75 °F
Forecast: 71 / 94 °F
Wind: No wind

Location: Riverside / March Air Force Base

Current Time: Jul 30, 2015 at 8:01:04 AM

Latest Report: Jul 30, 2015 at 6:58 AM


Visibility: 10 mi

Pressure: 29.96 "Hg

Humidity: 72%

Dew point: 64 °F

Location of Moreno ValleyLocation

Historic Weather in Moreno Valley — Graph

°F

Moreno Valley temperature yesterday

Maximum temperature yesterday: 96 °F (at 1:58 PM)
Minimum temperature yesterday: 65 °F (at 3:58 AM)
Average temperature yesterday: 80 °F

Past Weeks' High & Low Weather Summary

 TemperatureHumidityPressure
High96 °F (Jul 17, 2:58 PM)100% (Jul 16, 4:58 AM)30.13 "Hg (Jul 16, 4:58 AM)
Low58 °F (Jul 16, 4:58 AM)12% (Jul 17, 11:58 AM)29.77 "Hg (Jul 17, 3:58 PM)
Average75 °F66%29.93 "Hg
* Reported Jul 15 6:58 AM — Jul 30 6:58 AM, Moreno Valley, Weather by CustomWeather, © 2015

Note: Actual official high and low records may vary slightly from our data, if they occured in-between our weather recording intervals... More about our weather records

Advertising

Moreno Valley weather history for previous 24 hours

 ConditionsComfort  
Time TempWeatherWind HumidityBarometerVisibility
6:58 AM
Thu, Jul 30
73 °FPassing clouds.No wind72%29.96 "Hg10 mi
5:58 AM72 °FOvercast.3 mph76%29.95 "Hg10 mi
4:58 AM72 °FPassing clouds.3 mph76%29.95 "Hg10 mi
3:58 AM71 °FClear.3 mph78%29.95 "Hg10 mi
2:58 AM70 °FPassing clouds.No wind80%29.95 "Hg10 mi
1:58 AM71 °FPassing clouds.6 mph78%29.95 "Hg10 mi
12:58 AM72 °FOvercast.3 mph75%29.96 "Hg10 mi
11:58 PM
Wed, Jul 29
72 °FClear.6 mph73%29.97 "Hg10 mi
10:58 PM74 °FPassing clouds.5 mph70%29.96 "Hg10 mi
9:58 PM76 °FPassing clouds.7 mph65%29.97 "Hg10 mi
8:58 PM79 °FPassing clouds.7 mph59%29.95 "Hg10 mi
7:58 PM83 °FScattered clouds.6 mph52%29.91 "Hg10 mi
6:58 PM88 °FPassing clouds.10 mph45%29.89 "Hg10 mi
5:58 PM91 °FSunny.14 mph41%29.88 "Hg10 mi
4:58 PM91 °FPassing clouds.14 mph42%29.88 "Hg10 mi
3:58 PM96 °FScattered clouds.10 mph37%29.86 "Hg10 mi
2:58 PM95 °FScattered clouds.12 mph35%29.88 "Hg10 mi
2:50 PM95 °FPassing clouds.10 mph36%29.93 "Hg10 mi
1:58 PM96 °FSunny.10 mph35%29.88 "Hg10 mi
12:58 PM96 °FPassing clouds.9 mph36%29.89 "Hg10 mi
11:58 AM93 °FSunny.9 mph39%29.91 "Hg10 mi
10:58 AM87 °FSunny.5 mph45%29.93 "Hg10 mi
9:58 AM81 °FSunny.5 mph57%29.93 "Hg10 mi
8:58 AM76 °FSunny.6 mph66%29.92 "Hg10 mi
Weather by CustomWeather, © 2015

See weather overviewHow to use our weather pages